Location: Mentone
(34.5413°N, 85.5351°W)
Time: 08:59:48
(UTC-06:00)

Vanguard 2 Rocket - Visible Passes

Search period start: 02 March 2015 00:00
Search period end: 12 March 2015 01:00
Orbit: 554 x 3334 km, 32.9° (Epoch: 01 March)

Date Brightness Start Highest point End Pass type
(mag) Time Alt. Az. Time Alt. Az. Time Alt. Az.
02 Mar 11.0 19:33:52 10° WSW 19:45:48 19° SW 19:56:47 10° S visible
03 Mar 10.9 18:31:45 10° W 18:45:04 26° SW 18:59:28 10° S visible
05 Mar 11.2 18:51:12 10° WSW 19:01:20 16° SW 19:10:53 10° S visible
06 Mar 11.1 17:49:11 10° W 18:00:38 23° SSW 18:13:38 10° S visible
08 Mar 11.3 19:09:33 10° WSW 19:17:07 14° SW 19:23:57 10° SSW visible
